Regional Weather Roundup
Issued by NWS Cleveland, OH

Home | Current Version | Previous Version | Graphics & Text | Print | Product List | Glossary On
Versions: 1 2 3 4 5 6 7 8 9 10 11 12 13 14 15 16 17 18 19 20 21 22 23 24 25 26 27 28 29 30 31 32 33 34 35 36 37 38 39 40 41 42 43 44 45 46 47 48 49 50
000
ASUS41 KCLE 282202
RWRCLE
OHIO REGIONAL WEATHER ROUNDUP
NATIONAL WEATHER SERVICE CLEVELAND, OH
600 PM EDT SAT MAY 28 2016

NOTE: "FAIR" INDICATES FEW OR NO CLOUDS BELOW 12,000 FEET WITH NO
SIGNIFICANT WEATHER AND/OR OBSTRUCTIONS TO VISIBILITY.

OHZ001>008-015>018-024>027-034-035-043-044-282300-
   NORTHWEST OHIO

CITY           SKY/WX    TMP DP  RH WIND       PRES   REMARKS
DEFIANCE       MOSUNNY   82  64  54 S12G22    30.01S
FINDLAY        CLOUDY    77  65  66 S10       30.04F
TOLEDO EXPRESS CLOUDY    82  65  56 S9        30.02R
TOLEDO EXEC    CLOUDY    77  65  66 S10       30.04R
LIMA           CLOUDY    76  68  76 S8        30.05S
$$

OHZ009>014-019>023-028>033-038-089-282300-
   NORTHEAST OHIO

CITY           SKY/WX    TMP DP  RH WIND       PRES   REMARKS
CLE-HOPKINS    PTSUNNY   83  65  54 NW8       30.05S
CLE-LAKEFRONT  SUNNY     78  66  66 NE10      30.02F
CUY CO. ARPT   PTSUNNY   86  68  54 N7        30.05F
LORAIN-ELYRIA  RAIN      70  66  87 W14       30.10R FOG
ASHTABULA      SUNNY     79  71  76 E7        30.07F
AKRON-CANTON   MOSUNNY   86  64  47 SW9       30.07S
WOOSTER        LGT RAIN  79  64  60 W18       30.07S
MANSFIELD      CLOUDY    71  68  90 SW6       30.10F
YOUNGSTOWN     MOSUNNY   85  63  47 S5        30.07F
$$

OHZ042-051>053-060>062-070>072-077>081-282300-
  SOUTHWEST OHIO

CITY           SKY/WX    TMP DP  RH WIND       PRES   REMARKS
CINC-COVINGTON CLOUDY    81  66  60 SW7       30.07S
CINC-LUNKEN    MOSUNNY   80  65  59 SW10      30.06S
HAMILTON       PTSUNNY   83  64  52 S9        30.06S
DAYTON         LGT RAIN  80  67  64 S9        30.07F
WRIGHT-PAT AFB TSTM      79  68  69 S15G26    30.08R
DAYTON GENERAL MOSUNNY   82  62  50 S14       30.06S
WILMINGTON     MOSUNNY   80  64  58 SW8       30.08S
$$

OHZ036-037-039>041-045>050-054>059-063>069-073>076-082>088-282300-
  CENTRAL AND SOUTHEAST OHIO

CITY           SKY/WX    TMP DP  RH WIND       PRES   REMARKS
COLUMBUS       CLOUDY    71  67  87 NE6       30.07F
OSU AIRPORT    CLOUDY    72  68  87 E7        30.07F
BOLTON FIELD   SUNNY     77  70  78 CALM      30.07F
RICKENBACK AFB NOT AVBL
NEWARK         MOSUNNY   78  68  71 NW9       30.08R
MARION         CLOUDY    75  68  78 S13       30.10S
LANCASTER      LGT RAIN  77  66  68 CALM      30.09S
ZANESVILLE     MOSUNNY   86  65  49 S6        30.07S
NEW PHILLY     MOSUNNY   89  62  40 S7        30.07S
$$



USA.gov is the U.S. government's official web portal to all federal, state and local government web resources and services.